Regional Weather Roundup
Issued by NWS Bismarck, ND

Home | Current Version | Previous Version | Text Only | Print | Product List | Glossary On
Versions: 1 2 3 4 5 6 7 8 9 10 11 12 13 14 15 16 17 18 19 20 21 22 23 24 25 26 27 28 29 30 31 32 33 34 35 36 37 38 39 40 41 42 43 44 45 46 47 48 49 50
000
ASUS43 KBIS 012310
RWRBIS

NWR BROADCAST TEXT
NATIONAL WEATHER SERVICE BISMARCK ND
600 PM CDT TUE SEP 01 2015

NOTE: "FAIR" INDICATES FEW OR NO CLOUDS BELOW 12,000 FEET WITH NO
SIGNIFICANT WEATHER AND/OR OBSTRUCTIONS TO VISIBILITY.


CITY           SKY/WX    TMP DP  RH WIND       PRES   REMARKS
WILLISTON      SUNNY     93  44  18 S10       29.72F
MINOT          SUNNY     88  51  28 S15       29.75S
MINOT AFB      NOT AVBL
BISMARCK       SUNNY     88  63  43 SE10      29.77F
DICKINSON      SUNNY     88  54  31 SE12      29.78S
GARRISON         N/A     87  58  37 S10       29.77F
HETTINGER ARPT SUNNY     88  54  31 SW6       29.81S
JAMESTOWN      SUNNY     86  63  45 SE9       29.81S
CROSBY         FAIR      86  46  25 SW9       29.71F
HARVEY         FAIR      86  55  35 S12G17    29.79S
HAZEN          FAIR      86  59  39 S10G18    29.78R
LINTON         FAIR      90  72  55 SE9       29.78S HX  96
OAKES            N/A     86  82  89 SE12      29.82R HX 105
RUGBY          FAIR      86  50  28 S10       29.77F
STANLEY        FAIR      84  59  42 S15       29.78S
$$

CITY           SKY/WX    TMP DP  RH WIND       PRES   REMARKS
GRAND FORKS    MOSUNNY   86  53  32 S9        29.81S
GRAND FORKS AF SUNNY     86  53  31 S8        29.82S
DEVILS LAKE    SUNNY     84  52  32 SE14      29.80S
FARGO          MOSUNNY   88  50  27 SE10      29.81S
CAVALIER       FAIR      86  55  35 S8        29.80S
GRAFTON        FAIR      86  55  35 S8        29.81F
GWINNER        FAIR      82  72  69 SE12      29.83R
LANGDON        FAIR      86  52  30 S15       29.83S
ROLLA            N/A     84  48  28 S16G22    29.81S
WALHALLA       FAIR      84  54  34 MISG      29.80R
$$

CITY           SKY/WX    TMP DP  RH WIND       PRES   REMARKS
ABERDEEN       SUNNY     85  66  53 S9        29.81S
MOBRIDGE       SUNNY     90  67  46 S15       29.74S HX  93
BUFFALO          N/A     88  55  32 E7        29.76S
RAPID CITY     SUNNY     86  58  38 NE10      29.84S
GLASGOW        SUNNY     87  33  14 W12       29.74S
SIDNEY         SUNNY     91  46  21 W8        29.72S
WOLF POINT     SUNNY     89  38  16 W14       29.74S
GLENDIVE       SUNNY     91  39  16 W8        29.76S
MILES CITY     SUNNY     93  33  12 W13G20    29.76F
BAKER          SUNNY     92  41  17 NW6       29.80F
$$

CITY           SKY/WX    TMP DP  RH WIND       PRES   REMARKS
BILLINGS       MOSUNNY   90  26  10 VRB5      29.80F
GREAT FALLS    MOSUNNY   84  29  13 SW12      29.78F
REGINA         PTSUNNY   79  45  29 W15G21    29.73R
ESTEVAN        MOSUNNY   90  48  24 SW15G29   29.71F
$$




USA.gov is the U.S. government's official web portal to all federal, state and local government web resources and services.